STARLINK-35639, 66382

Orbit data source: Space-Track

STARLINK-35639, 66382 is a payload satellite owned by SpaceX/Seattle (US) in LEO that was launched on Sat, 08 Nov 2025 UTC via an FALCON 9 launch vehicle from the Air Force Eastern Test Range (AFETR). Payload-class satellites include a variety of spacecraft equipped with specific instruments for various scientific and technological missions. These include communications satellites like Starlink; space stations such as the ISS; scientific satellites like the Hubble; Earth observation satellites from companies like Planet Labs, Umbra, and HawkEye 360; GPS; miniature CubeSats for education and research; and military/defense satellites.

Loading next visibility...
Identifier
66382, 2025-257C
Orbit
LEO
Country
Flag of USUS
Related business
Manufacturer
SpaceX/Seattle
Mission
Operational Commercial Communications
Bus & Motor
STARLINK V2MO, Unknown motor
Mass
575 kg wet, ~530 kg dry
Launch date (UTC)
2025-11-08 (7 months ago)
Launch vehicle
FALCON 9
Launch site
Air Force Eastern Test Range (AFETR)
Object type
Payload
Rocket body
Debris
Shape & HBR
Box + 2 Pan, 17.7 m
Radar Cross Section
36.964 m², Large (>1 m²)

Expand to show TLE details & history
Last TLE update: 1 day ago

TLE from 1 day ago
0 STARLINK-35639
1 66382U 25257C   26170.67756686  .00015129  00000-0  52174-3 0  9993
2 66382  53.1606 103.6312 0001321 127.3296 232.7825 15.30209407 35346
Epoch: 2026-06-19T16:15Z
TLE epoch observation values (Epoch: 2026-06-19T16:15:41.776Z)
Latitude
-0.00005°
Longitude
-48.19601°
Altitude
476.634 km
Speed
7.628 km/s
True Right ascension
06h 54m 31s
True Declination
0° 00' 00"
Sunlit
Object was in daylight at epoch
Visualization orbit readout
Latitude
Unknown
Longitude
Unknown
Altitude
Unknown
Speed
Unknown
Apparent Right ascension
Unknown
Apparent Declination
Unknown
Sunlit
N/A
Visualization observer readout
Local Sidereal Time
08:33:21
Azimuth
Unknown
Elevation
Unknown
Doppler factor
Unknown
Orbital elements
Apogee altitude
476.349 km
Perigee altitude
474.538 km
Semi-major axis
6,853.58 km
Eccentricity
0.00013
Inclination
53.1606°
RAAN
103.6312°
Arg. of periapsis
127.3296°
True anomaly
232.77045°
Mean anomaly
232.7825°
Eccentric anomaly
232.77647°
Mean motion
3.82531 °/min
Orbital period
94.11 mins
BSTAR
0.00052174
Loading maneuver chart data...
Computing Atmospheric mass density...
Loading historical data...
Loading historical data...
Loading historical data...
Loading historical data...
Loading historical data...
Loading historical data...
Loading historical data...

Documentation

Showing up to 5 results
|